This demonstration page uses our WeatherBlox Daily Observations layout. Learn more.

Left ArrowRight Arrow

Hourly Observations for February 17, 2020

Temp ( °F °C ) Dew Point ( °F °C ) Humidity (%) Winds ( mph kmh ) Pressure ( in mb ) Visibility ( mi km ) Precip ( " mm )
12:56 am 00:56 Cloudy with Light Rain 41 5 34 1.1 76 76 SSW 13 20 29.84 1010 10 16 0.00 0.00
1:56 am 01:56 Cloudy with Light Rain 39 3.9 34 1.1 82 82 S 10 17 29.83 1010 10 16 0.00 0.00
2:56 am 02:56 Cloudy 43 6.1 36 2.2 76 76 SW 12 19 29.78 1008 10 16 0.00 0.00
3:56 am 03:56 Clear 40 4.4 35 1.7 83 83 SSW 10 17 29.77 1008 10 16 0.00 0.00
4:56 am 04:56 Mostly Clear 38 3.3 34 1.1 86 86 SSW 15 24 29.78 1008 10 16 0.00 0.00
5:56 am 05:56 Mostly Clear 39 3.9 34 1.1 82 82 SW 12 19 29.78 1009 10 16 0.00 0.00
6:56 am 06:56 Mostly Clear 37 2.8 33 0.6 86 86 WSW 5 7 29.78 1009 10 16 0.00 0.00
7:56 am 07:56 Sunny 36 2.2 32 0 86 86 SW 10 17 29.79 1009 10 16 0.00 0.00
8:56 am 08:56 Sunny 42 5.6 33 0.6 71 71 W 10 17 29.80 1009 10 16 0.00 0.00
9:56 am 09:56 Sunny 42 5.6 32 0 68 68 NW 16 26 29.83 1010 10 16 0.00 0.00
10:56 am 10:56 Sunny 44 6.7 27 -2.8 51 51 NNW 21 33 29.87 1011 10 16 0.00 0.00
11:56 am 11:56 Sunny 47 8.3 28 -2.2 48 48 NNW 18 30 29.89 1012 10 16 0.00 0.00
12:56 pm 12:56 Mostly Cloudy 45 7.2 30 -1.1 56 56 NNW 24 39 29.90 1013 10 16 0.00 0.00
1:56 pm 13:56 Cloudy 44 6.7 30 -1.1 58 58 NNW 20 31 29.92 1013 10 16 0.00 0.00
2:56 pm 14:56 Partly Cloudy 46 7.8 29 -1.7 51 51 NNW 22 35 29.92 1013 10 16 0.00 0.00
3:56 pm 15:56 Mostly Sunny 43 6.1 29 -1.7 58 58 N 25 41 29.94 1014 10 16 0.00 0.00
4:56 pm 16:56 Sunny 40 4.4 27 -2.8 60 60 NNW 25 41 29.96 1015 10 16 0.00 0.00
5:56 pm 17:56 Sunny 37 2.8 26 -3.3 65 65 N 17 28 30.01 1016 10 16 0.00 0.00
6:56 pm 18:56 Clear 32 0 25 -3.9 75 75 N 23 37 30.07 1018 10 16 0.00 0.00
7:19 pm 19:19 Mostly Cloudy 30 -1 27 -3 86 86 N 18 30 30.15 1021 10 16 0.00 0.00
7:56 pm 19:56 Cloudy 31 -0.6 26 -3.3 82 82 N 23 37 30.11 1020 10 16 0.00 0.00
8:56 pm 20:56 Mostly Cloudy 30 -1.1 25 -3.9 82 82 N 12 19 30.14 1021 10 16 0.00 0.00
9:08 pm 21:08 Partly Cloudy 30 -1 25 -4 80 80 NNW 8 13 30.21 1023 10 16 0.00 0.00
9:56 pm 21:56 Clear 28 -2.2 24 -4.4 85 85 N 7 11 30.19 1022 10 16 0.00 0.00
10:56 pm 22:56 Mostly Clear 27 -2.8 23 -5 85 85 N 7 11 30.22 1023 10 16 0.00 0.00
11:56 pm 23:56 Clear 26 -3.3 22 -5.6 84 84 N 9 15 30.24 1024 10 16 0.00 0.00

Powered by AerisWeather